#�ϑ�����,���ϕ���,���ϕ���,�ő啗��,�ő啗����������,�ő�u�ԕ���,�ő�u�ԕ�����������
#(�N����),(m/s)   ,(16����),(m/s)   ,(16����)        ,(m/s)       ,(16����)            
2012/11/9 5:08,2.7,11,2.7,11,3,12
2012/11/9 5:09,2.5,11,2.7,11,3,12
2012/11/9 5:10,2.5,11,2.5,11,3,14
2012/11/9 5:11,2.3,11,2.5,11,2.9,10
2012/11/9 5:12,2.2,11,2.3,11,2.7,10
2012/11/9 5:13,2.2,11,2.2,11,2.6,10
2012/11/9 5:14,2.2,11,2.2,11,2.7,11
2012/11/9 5:15,2.2,11,2.2,11,2.9,10
2012/11/9 5:16,2.2,11,2.2,11,2.6,10
2012/11/9 5:17,2.1,11,2.2,11,2.5,10
2012/11/9 5:18,2,10,2.1,11,1.8,10
2012/11/9 5:19,1.8,10,2,11,1.3,9
2012/11/9 5:20,1.6,10,1.8,11,0.1,1
2012/11/9 5:21,1.4,10,1.5,11,0.9,16
2012/11/9 5:22,1.3,10,1.4,11,1.4,16
2012/11/9 5:23,1.2,11,1.3,11,1.4,16
2012/11/9 5:24,1,13,1.1,11,1.6,16
2012/11/9 5:25,0.9,15,1,11,1.5,16
2012/11/9 5:26,0.8,16,0.9,11,1.3,1
2012/11/9 5:27,0.8,1,0.8,11,1.8,1
2012/11/9 5:28,0.7,1,0.8,10,1.1,1
2012/11/9 5:29,0.7,1,0.7,10,0.8,16
2012/11/9 5:30,0.8,16,0.8,10,1.3,16
2012/11/9 5:31,0.8,16,0.8,10,1,1
2012/11/9 5:32,0.8,16,0.8,11,0.5,15
2012/11/9 5:33,0.7,16,0.8,11,0.3,16
2012/11/9 5:34,0.6,1,0.7,13,0,1
2012/11/9 5:35,0.5,1,0.5,15,0.1,1
2012/11/9 5:36,0.3,1,0.4,16,0.1,2
2012/11/9 5:37,0.2,1,0.3,1,0.1,5
2012/11/9 5:38,0.2,1,0.2,1,0.5,3
2012/11/9 5:39,0.2,1,0.2,1,0.6,1
2012/11/9 5:40,0.2,2,0.2,16,0.6,1
2012/11/9 5:41,0.2,2,0.2,16,0.9,1
2012/11/9 5:42,0.3,2,0.3,16,1.4,1
2012/11/9 5:43,0.4,2,0.4,16,1.3,1
2012/11/9 5:44,0.4,2,0.4,1,1.3,16
2012/11/9 5:45,0.5,1,0.5,1,1.3,14
2012/11/9 5:46,0.6,1,0.6,1,1.4,14
2012/11/9 5:47,0.7,16,0.7,1,1,15
2012/11/9 5:48,0.8,16,0.8,16,1.3,15
2012/11/9 5:49,0.8,16,0.8,16,1.3,15
2012/11/9 5:50,0.8,15,0.8,16,0.6,14
2012/11/9 5:51,0.7,15,0.8,16,0.3,15
2012/11/9 5:52,0.6,15,0.7,16,0.1,16
2012/11/9 5:53,0.5,15,0.6,16,0.1,14
2012/11/9 5:54,0.5,15,0.5,16,1,14
2012/11/9 5:55,0.5,14,0.6,16,0.9,13
2012/11/9 5:56,0.4,14,0.5,16,0,12
2012/11/9 5:57,0.3,14,0.4,16,0.6,11
2012/11/9 5:58,0.3,13,0.3,16,1.1,9
2012/11/9 5:59,0.2,13,0.3,16,1.1,9
2012/11/9 6:00,0.2,13,0.2,15,0.5,14
2012/11/9 6:01,0.3,13,0.3,15,1.1,3
2012/11/9 6:02,0.4,13,0.4,15,1.1,3
2012/11/9 6:03,0.4,13,0.4,15,0.8,16
2012/11/9 6:04,0.5,14,0.5,15,1.5,16
2012/11/9 6:05,0.5,1,0.5,14,1.1,1
2012/11/9 6:06,0.6,2,0.6,1,1.1,2
2012/11/9 6:07,0.6,2,0.6,1,1,1
2012/11/9 6:08,0.6,1,0.6,1,1.3,16
2012/11/9 6:09,0.7,1,0.7,1,2.4,13
2012/11/9 6:10,0.9,1,0.9,1,2.5,13
2012/11/9 6:11,0.9,16,0.9,1,1.6,13
2012/11/9 6:12,0.9,15,0.9,1,1.3,13
2012/11/9 6:13,0.9,15,0.9,1,0.6,9
2012/11/9 6:14,0.8,14,0.9,1,1,13
2012/11/9 6:15,0.9,13,0.9,1,2.1,13
2012/11/9 6:16,1,13,1,13,2.1,13
2012/11/9 6:17,1.1,12,1.1,13,1.9,11
2012/11/9 6:18,1.2,12,1.2,12,1.6,12
2012/11/9 6:19,1.2,12,1.2,12,2,12
2012/11/9 6:20,1,12,1.2,12,1,11
2012/11/9 6:21,1,11,1,12,2,10
2012/11/9 6:22,1,11,1,12,1.6,9
2012/11/9 6:23,1.1,11,1.1,12,2.2,11
2012/11/9 6:24,1.2,11,1.2,12,2.1,10
2012/11/9 6:25,1.2,11,1.2,12,1.9,9
2012/11/9 6:26,1.2,10,1.2,12,1.9,9
2012/11/9 6:27,1.2,10,1.2,12,2.6,8
2012/11/9 6:28,1.2,10,1.2,12,2.4,8
2012/11/9 9:31,1.4,12,1.4,12,1.8,11
2012/11/9 9:32,1.3,13,1.5,12,1.8,11
2012/11/9 9:33,1.2,13,1.3,12,1.8,11
2012/11/9 9:34,1.2,13,1.2,12,1.8,13
2012/11/9 9:35,1.5,14,1.5,12,3.7,15
2012/11/9 9:36,1.8,14,1.8,14,6.2,16
2012/11/9 9:37,2,14,2,14,4.2,15
2012/11/9 9:38,2.1,14,2.1,14,3.7,15
2012/11/9 9:39,2.2,15,2.2,15,4.9,16
2012/11/9 9:40,2,15,2.2,15,3.1,1
2012/11/9 9:41,1.9,14,2,15,2.1,8
2012/11/9 9:42,1.8,14,1.9,15,1.5,8
2012/11/9 9:43,1.8,14,1.8,15,2.2,8
2012/11/9 9:44,1.9,14,1.9,15,3.2,8
2012/11/9 9:45,1.8,11,1.9,15,3.3,9
2012/11/9 9:46,1.7,9,1.8,15,2.5,8
2012/11/9 9:47,1.5,8,1.7,15,2.2,7
2012/11/9 9:48,1.3,8,1.5,15,3.3,8
2012/11/9 9:49,1.3,8,1.3,15,3.7,7
2012/11/9 9:50,1.4,8,1.4,15,3.3,8
2012/11/9 9:51,1.4,8,1.4,14,2.2,8
2012/11/9 9:52,1.5,8,1.5,14,2.2,5
2012/11/9 9:53,1.6,8,1.6,14,2.6,7
2012/11/9 9:54,1.6,8,1.6,14,3.1,8
2012/11/9 9:55,1.5,8,1.5,11,3,7
2012/11/9 9:56,1.5,7,1.5,9,2.1,7
2012/11/9 9:57,1.5,8,1.5,8,3.5,8
2012/11/9 9:58,1.7,8,1.7,8,4.7,8
2012/11/9 9:59,1.8,8,1.8,8,3.8,7
2012/11/9 10:00,1.9,7,1.9,7,3.6,7
2012/11/9 10:01,1.9,8,1.9,7,3.1,7
2012/11/9 10:02,2,8,2,8,3.5,7
2012/11/9 10:03,2.1,7,2.1,8,3.8,7
2012/11/9 10:04,2.1,8,2.1,8,2.4,9
2012/11/9 10:05,2,8,2.1,8,1.6,7
2012/11/9 10:06,2,8,2,8,2.1,6
2012/11/9 10:07,1.9,8,2,8,3.2,7
2012/11/9 10:08,1.9,7,2,8,3.2,6
2012/11/9 10:09,1.8,7,1.9,8,4.9,7
2012/11/9 10:10,1.8,7,1.8,8,4.2,7
2012/11/9 10:11,1.6,8,1.7,8,2.1,9
2012/11/9 10:12,1.6,8,1.6,8,3.6,7
2012/11/9 10:13,1.5,8,1.6,7,3.1,9
2012/11/9 10:14,1.7,8,1.7,8,3.5,8
2012/11/9 10:15,1.8,8,1.8,8,4.4,8
2012/11/9 10:16,1.9,8,1.9,8,3,8
2012/11/9 10:17,1.9,8,1.9,8,3,7
2012/11/9 10:18,1.8,8,1.9,7,2.7,7
2012/11/9 10:19,1.7,8,1.8,8,3.2,9
2012/11/9 10:20,1.7,8,1.7,8,3.5,9
2012/11/9 10:21,1.8,8,1.8,8,3.3,10
2012/11/9 10:22,1.8,8,1.8,8,4.3,9
2012/11/9 10:23,1.8,8,1.8,8,4.1,10
2012/11/9 10:24,1.7,8,1.7,8,3.8,8
2012/11/9 10:25,1.6,8,1.6,8,3.7,9
2012/11/9 10:26,1.7,8,1.7,8,4.2,8
2012/11/9 10:27,1.8,8,1.8,8,3.5,8
2012/11/9 10:28,1.8,8,1.8,8,3.8,8
2012/11/9 10:29,1.9,9,1.9,8,3.7,8
2012/11/9 10:30,2,9,2,9,4.9,8
2012/11/9 10:31,2.2,8,2.2,8,3.9,9
2012/11/9 10:32,2.3,8,2.3,8,5.1,8
2012/11/9 10:33,2.4,8,2.4,8,4.3,8
2012/11/9 10:34,2.4,8,2.5,8,3,7
2012/11/9 10:35,2.4,8,2.4,8,2.5,8
2012/11/9 10:36,2.4,8,2.4,8,3.9,7
2012/11/9 10:37,2.4,8,2.5,8,4.1,8
2012/11/9 10:38,2.4,8,2.4,8,3.7,7
2012/11/9 10:39,2.3,8,2.4,8,2.5,8
2012/11/9 10:40,2.2,8,2.3,8,2.9,7
2012/11/9 10:41,2.1,7,2.2,8,2.5,7
2012/11/9 10:42,1.9,7,2.1,8,2.5,5
2012/11/9 20:15,1.5,14,1.5,14,2.2,12
2012/11/9 20:16,1.1,11,1.5,14,2.2,12
2012/11/9 20:17,3.2,12,3.2,12,7.6,12
2012/11/9 20:18,2.4,11,3.1,12,3.2,14
2012/11/9 20:19,2.1,11,2.3,12,3.7,15
2012/11/9 20:20,2.1,13,2.2,12,4.8,16
2012/11/9 20:21,2.4,14,2.4,12,6.7,16
2012/11/9 20:22,2.6,14,2.6,12,5.1,15
2012/11/9 20:23,2.7,14,2.7,12,5.2,16
2012/11/9 20:24,2.7,14,2.7,12,4.4,15
2012/11/9 20:25,2.6,14,2.7,12,3.1,14
2012/11/9 20:26,2.7,15,2.7,12,3.1,16
2012/11/9 20:27,2.5,15,2.6,12,4.3,13
2012/11/9 20:28,2.5,15,2.5,14,2.4,14
2012/11/9 20:29,2.6,15,2.6,14,4.8,15
2012/11/9 20:30,2.7,15,2.7,14,5.4,15
2012/11/9 20:31,2.6,15,2.7,14,6.2,15
2012/11/9 20:32,2.5,15,2.6,14,2.9,3
2012/11/9 20:33,2.5,15,2.5,14,8.1,16
2012/11/9 20:34,2.5,15,2.5,14,5.7,15
2012/11/9 20:35,2.6,16,2.6,15,5.2,1
2012/11/9 20:36,2.8,16,2.8,16,5.2,3
2012/11/9 20:37,2.9,16,2.9,16,7.7,3
2012/11/9 20:38,3.3,1,3.3,1,9.1,1
2012/11/9 20:39,3.7,1,3.7,1,7.9,1
2012/11/9 20:40,3.4,1,3.6,1,2.6,2
2012/11/9 20:41,3.3,1,3.4,1,3.5,13
2012/11/9 20:42,3.3,16,3.3,1,3.5,13
2012/11/9 20:43,3.3,16,3.4,1,7.2,1
2012/11/9 20:44,3.5,16,3.5,1,9.4,14
2012/11/9 20:45,3.9,16,3.9,16,11.8,16
2012/11/9 20:46,4.1,15,4.1,16,8.7,15
2012/11/9 20:47,4.1,15,4.1,16,7,15
2012/11/9 20:48,4,15,4.1,16,7.2,13
2012/11/9 20:49,4,15,4,16,8.4,14
2012/11/9 20:50,4.3,15,4.3,15,6.7,16
2012/11/9 20:51,4.4,15,4.4,15,6,13
2012/11/9 20:52,4.7,15,4.7,15,12.6,16
2012/11/9 20:53,5,15,5,15,9.3,16
2012/11/9 20:54,5.1,15,5.2,15,9.2,15
2012/11/9 20:55,4.9,15,5.1,15,9.1,16
2012/11/9 20:56,4.4,15,4.8,15,3.5,16
2012/11/9 20:57,4.2,15,4.4,15,5.6,16
2012/11/9 20:58,4,15,4.2,15,3,16
2012/11/9 20:59,3.6,15,3.9,15,3.1,2
2012/11/9 21:00,3.4,15,3.6,15,3.3,15
2012/11/9 21:01,3.3,16,3.4,15,4.7,15
2012/11/9 21:02,3.2,15,3.3,15,5.8,12
2012/11/9 21:03,2.9,15,3.1,15,5.1,15
2012/11/9 21:04,2.6,15,2.9,15,7,14
2012/11/9 21:05,2.8,15,2.8,15,10.3,16
2012/11/9 21:06,3.1,15,3.1,15,8.2,13
2012/11/9 21:07,3.7,15,3.7,15,10.2,16
2012/11/9 21:08,4,15,4,15,6.9,15
2012/11/9 21:09,4.2,15,4.2,15,6.5,15
2012/11/9 21:10,4.2,14,4.2,15,5.4,15
2012/11/9 21:11,4.4,14,4.4,14,6.3,16
2012/11/9 21:12,4.3,14,4.4,14,5.5,12
2012/11/9 21:13,4.6,14,4.6,14,9.8,15
2012/11/9 21:14,4.7,14,4.8,14,9.9,14
2012/11/9 21:15,4.6,14,4.7,14,9.9,16
2012/11/9 21:16,4.3,15,4.5,14,4.1,1
2012/11/9 21:17,3.8,15,4.3,14,5.8,16
2012/11/9 21:18,3.7,15,3.8,14,6.3,16
2012/11/9 21:19,3.7,15,3.7,14,6.1,14
2012/11/9 21:20,3.7,15,3.7,14,3.5,14
2012/11/9 21:21,3.3,15,3.6,14,1.8,14
2012/11/9 21:22,3.1,15,3.3,14,2.2,4
2012/11/9 21:23,2.6,15,3.1,14,1,9
2012/11/9 21:24,2.2,15,2.5,14,1.9,7
2012/11/9 21:25,1.9,15,2.2,14,3.7,14
